Wind_Speed
26 26 27 27 27 27 28 29 30 29 29 30 29 29 29 28 27 26 26 26 25 25 25 25 25 26 26 26 25 25 25 25 26 26 26 26 26 25 25 25 25 25 25
26 26 26 26 27 28 29 29 30 30 30 30 30 29 29 28 27 27 27 27 26 26 25 24 25 25 25 25 26 26 26 26 26 26 26 26 26 26 25 26 26 26 25
26 26 25 26 26 27 28 29 29 30 30 30 28 28 28 28 28 28 28 28 27 27 26 26 26 26 25 26 26 26 26 26 26 26 26 26 26 27 27 27 27 26 25
26 25 25 26 27 27 28 28 28 28 29 29 29 28 28 28 27 28 27 27 27 26 26 25 25 26 26 25 25 26 26 26 26 26 27 26 26 26 26 27 27 26 25
24 23 25 27 28 28 28 28 27 26 26 27 27 28 28 28 27 27 26 27 26 25 25 24 24 24 24 24 25 25 25 25 26 26 26 26 26 27 26 26 27 26 26
23 25 26 27 28 29 29 28 27 26 26 26 26 27 27 27 27 26 26 27 25 24 22 22 22 23 23 24 24 25 24 24 25 26 26 27 27 27 26 25 26 27 27
25 26 27 27 27 28 29 28 28 27 26 27 26 26 26 27 26 26 25 25 24 23 22 22 23 24 24 24 24 25 25 26 26 26 27 27 27 28 27 26 26 26 26
25 25 26 27 27 28 29 29 27 27 26 26 26 26 27 26 26 25 25 24 24 24 23 23 23 23 23 23 24 24 25 25 26 26 26 26 27 27 26 26 26 26 26
25 24 24 25 26 27 28 27 26 26 25 24 24 25 25 25 24 23 24 24 24 23 23 23 23 23 23 23 23 23 23 24 24 24 25 24 25 25 26 26 25 25 25
24 25 24 24 26 27 26 26 26 24 23 22 22 23 23 23 22 21 21 21 21 21 21 22 22 22 22 22 22 21 21 21 22 22 23 23 23 24 24 24 24 24 24
24 23 24 24 25 25 25 25 24 23 21 21 21 21 21 21 21 21 21 21 21 21 21 21 22 22 21 21 21 21 21 21 22 22 22 23 23 22 23 23 23 23 24
23 23 24 23 24 24 23 23 22 21 21 20 20 20 21 20 20 20 19 19 20 20 20 20 21 21 21 21 21 20 21 22 21 22 22 22 22 22 22 22 22 23 23
24 24 23 23 23 23 22 21 21 19 19 19 19 20 20 20 19 19 19 20 19 19 19 20 20 20 20 20 20 20 21 21 21 22 22 22 21 21 21 22 22 23 23
24 24 23 23 23 22 21 21 20 18 17 17 18 19 19 18 18 18 18 19 19 19 19 19 19 19 19 20 20 21 21 21 21 21 22 22 21 21 21 22 22 22 23
23 22 21 20 20 20 19 20 19 18 18 18 19 20 18 17 17 18 18 18 18 18 18 18 18 18 18 19 19 20 19 20 20 20 20 21 21 22 22 22 22 22 22
22 20 19 18 18 17 17 18 18 17 18 18 19 19 18 17 17 17 17 17 16 16 16 17 17 17 17 17 17 18 19 19 19 19 20 20 21 22 22 22 22 22 23
21 19 17 16 16 16 16 17 17 17 17 18 18 18 17 16 15 15 15 14 13 14 14 14 14 15 16 17 17 18 17 17 17 18 19 19 19 20 20 20 21 21 22
19 17 16 16 16 15 16 16 17 16 16 17 17 16 15 13 13 13 13 12 12 13 12 13 14 15 16 17 17 16 16 15 15 16 16 16 16 16 17 18 19 20 20
17 16 15 15 15 15 15 16 16 15 15 15 15 14 13 12 12 12 11 10 10 11 11 12 13 14 15 15 15 15 15 14 15 15 15 15 15 15 16 17 18 18 19
15 15 14 14 14 13 13 14 14 13 13 13 13 13 12 11 11 10 9 9 9 10 11 12 13 13 13 13 13 13 14 14 14 15 15 14 14 15 15 16 16 17 17
14 14 13 13 12 12 13 12 12 12 12 11 12 11 11 11 10 10 9 9 9 10 11 12 12 12 12 12 12 12 13 13 13 13 13 13 13 14 14 14 14 15 15
13 13 12 12 11 11 11 11 11 12 12 11 11 10 9 10 10 10 10 10 10 10 10 10 11 11 11 12 12 12 12 12 12 11 12 12 12 12 12 12 12 12 13
12 12 12 11 10 10 10 10 10 11 10 9 9 9 9 9 9 9 9 9 9 9 10 10 11 11 12 12 12 11 12 12 12 11 10 11 10 10 10 10 10 11 12
10 10 10 9 9 9 9 8 9 9 8 8 8 9 9 8 9 9 9 9 9 10 10 11 12 12 13 13 12 12 12 12 11 11 11 10 10 10 10 10 10 10 11
8 8 8 8 8 7 7 6 7 7 8 7 7 8 9 9 9 9 9 9 10 10 10 11 12 12 13 13 13 13 13 12 11 11 11 11 10 10 10 10 10 9 9
5 6 7 7 6 5 5 5 6 6 7 7 8 8 8 8 8 8 9 9 10 10 11 12 12 13 13 13 13 13 13 12 11 11 11 11 10 9 9 9 9 9 9
Wind_Direction
300 300 299 298 297 299 299 297 296 291 289 289 285 284 284 280 278 278 279 279 281 281 281 279 277 277 275 274 272 272 271 270 269 267 266 266 267 267 266 266 266 266 263
298 300 299 297 298 299 297 295 295 291 291 291 286 285 284 281 278 279 277 278 279 279 278 280 280 279 276 275 273 272 271 270 269 268 267 266 266 267 267 267 267 266 265
297 297 296 298 301 300 297 296 296 294 293 292 287 285 285 282 279 279 276 277 278 279 278 279 280 279 276 276 273 272 271 270 270 269 269 267 266 266 267 267 266 265 264
294 296 298 301 302 301 300 300 298 295 293 290 287 287 286 284 281 280 279 276 277 276 277 279 279 279 279 277 273 271 270 269 269 269 270 270 268 266 267 268 266 264 262
294 297 301 302 302 303 304 304 299 294 294 292 288 287 284 282 281 280 279 277 275 275 275 276 277 279 280 277 275 273 270 269 268 269 271 271 271 268 267 266 265 262 259
298 302 302 301 302 303 304 303 300 295 296 294 291 291 289 286 282 280 279 280 276 274 274 274 276 279 279 278 275 274 270 269 269 269 270 271 270 269 267 263 262 261 258
304 304 301 300 301 302 303 301 301 296 295 294 292 291 290 290 284 281 282 281 279 278 276 275 277 277 278 279 278 276 272 270 270 270 270 270 269 269 266 262 260 260 258
303 305 304 301 301 303 304 301 300 299 296 295 293 291 290 289 287 284 284 284 281 277 276 275 277 277 277 278 279 277 274 273 272 271 270 269 268 267 265 263 260 259 257
302 303 305 304 303 303 305 305 304 302 297 296 294 292 290 290 290 287 286 284 281 278 277 278 280 281 280 279 279 277 277 275 271 270 270 270 268 266 264 263 260 259 256
306 304 305 304 303 303 304 305 304 301 299 297 295 295 293 290 289 289 289 286 281 279 279 279 279 281 280 280 278 277 278 276 272 269 268 269 269 266 263 262 261 259 258
307 306 306 306 305 303 303 303 302 300 300 299 297 295 293 290 290 290 287 284 281 279 278 280 281 282 281 281 280 277 277 276 273 271 269 268 269 267 263 262 261 259 257
306 305 305 305 306 305 303 303 303 300 300 298 296 296 296 294 293 293 290 286 281 278 277 279 280 280 280 282 280 278 278 277 275 273 271 269 269 269 267 264 263 260 258
308 305 302 303 306 306 304 305 304 301 304 303 301 300 300 297 293 291 290 288 283 279 277 281 281 281 281 281 280 280 280 278 276 274 271 269 269 269 269 266 262 260 258
308 307 304 304 306 306 307 308 308 307 306 306 306 305 301 295 291 291 292 289 285 282 281 282 283 282 283 281 282 281 280 279 278 275 272 272 271 269 268 267 264 261 259
310 309 307 306 305 306 308 310 310 308 309 310 308 305 302 297 293 291 290 287 285 282 280 282 283 284 285 283 282 281 278 277 278 277 275 274 272 269 265 265 263 262 261
310 312 310 305 305 307 310 312 313 312 312 312 311 309 305 300 298 295 294 291 288 285 284 285 286 288 288 288 286 284 280 278 278 277 277 277 276 271 266 265 264 263 262
310 312 310 307 307 307 311 313 314 316 316 314 316 316 311 306 304 302 301 299 296 298 297 296 294 292 291 291 290 288 286 282 281 281 279 279 279 275 268 265 264 264 261
309 309 307 303 304 305 310 313 316 317 315 316 319 321 319 314 312 311 309 307 305 303 302 302 300 296 295 295 293 292 291 287 284 283 283 282 280 275 269 266 265 262 259
305 305 303 302 306 307 305 308 313 314 315 318 320 323 326 324 324 320 315 315 316 313 310 307 305 303 302 300 296 295 294 293 290 288 286 284 279 273 269 267 265 262 259
305 305 304 305 307 308 308 311 313 316 318 319 321 324 331 331 332 329 324 321 320 319 317 316 315 312 308 306 304 302 300 298 296 293 290 287 283 276 271 271 268 264 261
305 305 305 307 310 312 312 313 317 319 320 322 326 329 332 334 337 341 337 331 327 325 322 320 321 321 318 316 313 310 308 306 302 297 294 291 287 282 278 275 271 267 263
300 301 303 306 310 313 314 316 320 324 324 324 326 330 334 340 341 343 345 344 340 337 333 332 332 332 330 328 323 318 315 312 308 305 300 297 294 289 283 278 274 269 266
298 298 300 304 308 312 316 322 326 330 333 335 338 339 341 343 342 344 345 346 347 347 344 341 340 339 337 334 330 325 323 321 317 312 308 304 301 297 290 286 280 274 267
297 299 300 303 306 309 316 324 330 338 343 346 348 347 345 348 348 347 348 349 349 347 345 345 344 344 342 341 339 335 331 326 321 314 310 308 305 300 298 294 291 285 272
293 300 302 306 309 313 315 321 329 338 342 345 347 350 348 351 350 350 353 354 354 351 350 349 347 344 344 344 343 343 341 335 329 322 316 313 310 306 305 300 292 287 279
289 300 307 314 316 325 323 322 328 338 342 344 347 352 352 357 357 355 356 357 357 357 355 352 350 349 348 348 347 345 345 342 336 330 325 319 314 311 308 305 298 289 282
Height
5857 5855 5853 5850 5848 5846 5843 5840 5837 5834 5833 5830 5828 5827 5826 5824 5824 5823 5822 5821 5820 5819 5818 5816 5815 5814 5813 5812 5812 5811 5811 5810 5810 5810 5809 5809 5808 5808 5807 5807 5806 5806 5806
5851 5850 5847 5844 5842 5840 5837 5834 5831 5829 5826 5824 5822 5821 5819 5817 5816 5815 5814 5814 5813 5812 5811 5810 5808 5807 5806 5805 5805 5804 5803 5803 5802 5802 5802 5802 5802 5801 5800 5800 5799 5799 5799
5846 5843 5841 5838 5836 5834 5830 5827 5825 5822 5820 5817 5814 5813 5811 5810 5808 5808 5807 5806 5806 5805 5804 5802 5801 5800 5799 5797 5797 5796 5796 5796 5795 5794 5795 5795 5795 5794 5793 5792 5792 5792 5792
5840 5837 5835 5833 5831 5828 5824 5821 5818 5815 5813 5810 5808 5805 5803 5802 5801 5800 5799 5798 5797 5796 5795 5794 5793 5792 5791 5790 5789 5788 5788 5788 5787 5787 5786 5787 5786 5786 5786 5785 5785 5785 5785
5833 5831 5829 5827 5824 5821 5818 5815 5812 5809 5806 5803 5801 5799 5797 5795 5794 5792 5791 5790 5789 5788 5788 5786 5786 5785 5784 5783 5782 5781 5780 5780 5779 5779 5778 5778 5778 5778 5778 5778 5778 5778 5778
5827 5825 5823 5821 5818 5815 5812 5809 5806 5803 5800 5797 5795 5793 5790 5788 5787 5785 5784 5783 5782 5781 5780 5779 5778 5777 5777 5776 5775 5773 5773 5772 5772 5771 5771 5770 5770 5770 5770 5771 5771 5771 5771
5822 5820 5817 5815 5812 5809 5807 5803 5799 5796 5793 5790 5788 5786 5784 5782 5780 5778 5777 5776 5775 5774 5773 5772 5771 5770 5769 5768 5767 5766 5765 5764 5764 5763 5763 5762 5762 5762 5762 5763 5764 5764 5764
5816 5814 5811 5808 5806 5803 5800 5796 5792 5789 5785 5783 5781 5779 5777 5775 5774 5772 5770 5769 5768 5767 5766 5765 5764 5763 5762 5761 5760 5758 5757 5756 5756 5755 5755 5755 5754 5754 5754 5755 5756 5756 5757
5811 5808 5805 5802 5799 5796 5793 5789 5785 5782 5779 5776 5774 5772 5770 5769 5767 5765 5763 5762 5761 5760 5759 5758 5757 5756 5755 5754 5752 5751 5750 5749 5748 5748 5747 5747 5747 5746 5747 5747 5747 5749 5749
5804 5802 5799 5795 5792 5789 5786 5783 5780 5776 5773 5770 5767 5765 5764 5762 5761 5759 5757 5755 5754 5753 5753 5751 5750 5749 5748 5746 5745 5744 5743 5742 5741 5741 5740 5740 5739 5739 5739 5739 5740 5740 5742
5798 5795 5793 5790 5786 5783 5780 5777 5774 5771 5767 5765 5762 5760 5758 5756 5754 5753 5751 5749 5748 5747 5746 5745 5744 5743 5741 5740 5739 5738 5737 5736 5735 5734 5733 5733 5732 5732 5732 5732 5732 5733 5734
5792 5790 5787 5784 5780 5777 5774 5771 5768 5765 5762 5759 5757 5755 5752 5750 5749 5747 5746 5744 5742 5741 5740 5739 5738 5737 5736 5734 5733 5732 5730 5729 5728 5727 5726 5726 5725 5725 5725 5725 5725 5726 5726
5787 5784 5781 5778 5774 5771 5769 5766 5762 5759 5757 5755 5752 5750 5747 5745 5743 5742 5740 5738 5736 5735 5734 5733 5732 5731 5730 5728 5727 5725 5724 5723 5721 5721 5720 5719 5718 5718 5718 5718 5719 5719 5720
5781 5778 5775 5771 5769 5766 5764 5761 5758 5755 5752 5750 5747 5745 5742 5740 5738 5736 5734 5732 5731 5729 5728 5727 5726 5725 5724 5722 5721 5719 5718 5716 5715 5714 5713 5712 5712 5712 5712 5712 5712 5712 5713
5775 5772 5769 5766 5763 5761 5758 5756 5754 5751 5748 5745 5742 5740 5738 5735 5733 5731 5729 5727 5725 5724 5723 5722 5720 5719 5718 5716 5715 5713 5712 5710 5709 5708 5707 5706 5705 5705 5705 5705 5705 5706 5706
5771 5767 5764 5761 5759 5757 5754 5752 5750 5747 5744 5741 5738 5736 5733 5730 5728 5725 5724 5722 5720 5718 5717 5716 5715 5714 5712 5711 5709 5707 5706 5704 5703 5702 5701 5699 5698 5698 5698 5698 5698 5699 5699
5765 5762 5760 5757 5755 5753 5751 5748 5746 5742 5740 5737 5734 5731 5728 5726 5723 5721 5719 5717 5715 5714 5712 5711 5710 5709 5707 5706 5704 5702 5700 5699 5697 5696 5695 5693 5692 5691 5691 5691 5691 5692 5692
5761 5758 5755 5753 5751 5749 5747 5745 5742 5739 5736 5734 5731 5727 5724 5722 5720 5718 5716 5714 5712 5711 5709 5708 5706 5705 5703 5701 5699 5697 5695 5694 5692 5691 5690 5688 5687 5686 5685 5685 5685 5685 5686
5756 5754 5752 5749 5747 5745 5743 5741 5738 5736 5733 5731 5728 5725 5722 5720 5717 5715 5713 5711 5710 5707 5706 5705 5703 5701 5699 5697 5695 5693 5691 5690 5688 5686 5685 5683 5682 5681 5681 5680 5680 5680 5680
5752 5750 5748 5746 5744 5742 5740 5738 5735 5733 5730 5728 5726 5723 5720 5718 5715 5712 5710 5709 5708 5706 5704 5702 5700 5698 5696 5693 5691 5689 5687 5686 5684 5682 5681 5679 5678 5677 5676 5675 5675 5675 5675
5748 5746 5744 5742 5740 5738 5737 5734 5732 5730 5728 5725 5723 5721 5718 5716 5714 5711 5709 5707 5706 5704 5702 5700 5698 5695 5693 5691 5688 5686 5684 5682 5681 5679 5677 5676 5674 5673 5672 5671 5670 5670 5670
5744 5742 5740 5739 5737 5735 5733 5731 5730 5728 5725 5723 5721 5719 5717 5715 5713 5711 5709 5706 5704 5702 5700 5698 5696 5693 5691 5688 5686 5684 5682 5680 5678 5676 5674 5673 5671 5670 5668 5668 5667 5666 5666
5740 5738 5737 5736 5734 5733 5731 5729 5728 5726 5724 5721 5719 5717 5715 5714 5712 5710 5708 5706 5704 5702 5699 5697 5695 5692 5689 5687 5684 5682 5679 5677 5675 5674 5672 5670 5669 5667 5666 5665 5664 5663 5663
5736 5735 5734 5733 5732 5730 5729 5727 5726 5724 5722 5720 5719 5717 5715 5713 5711 5709 5708 5706 5703 5701 5699 5696 5693 5691 5688 5685 5682 5680 5678 5675 5673 5671 5670 5668 5666 5665 5664 5662 5661 5660 5659
5732 5732 5731 5730 5729 5727 5726 5726 5724 5723 5721 5720 5718 5716 5714 5712 5711 5709 5707 5705 5703 5700 5698 5696 5693 5690 5687 5685 5682 5679 5676 5674 5672 5670 5668 5666 5665 5663 5661 5660 5659 5657 5657
5730 5729 5729 5728 5727 5726 5725 5724 5723 5722 5720 5719 5717 5716 5714 5712 5711 5709 5707 5705 5702 5700 5698 5695 5692 5690 5687 5684 5681 5678 5675 5673 5671 5669 5666 5665 5663 5661 5659 5658 5657 5655 5654